QPF
0.00 0.00 0.00 0.00 0.00 0.00 0.00 0.00 0.00 0.00 0.01 0.01 0.01 0.02 0.00 0.00 0.00 0.00 0.00 0.00 0.00 0.00 0.00 0.00 0.00 0.00 0.00 0.00 0.00 0.00 0.00 0.01 0.01 0.01 0.01 0.02 0.03 0.03 0.02 0.01 0.01 0.01 0.01 0.01
0.00 0.00 0.00 0.00 0.00 0.00 0.00 0.00 0.00 0.00 0.01 0.00 0.00 0.01 0.00 0.00 0.00 0.00 0.00 0.00 0.00 0.00 0.00 0.00 0.00 0.00 0.00 0.00 0.00 0.00 0.01 0.01 0.01 0.01 0.01 0.02 0.02 0.01 0.01 0.00 0.00 0.01 0.01 0.01
0.00 0.00 0.00 0.00 0.00 0.00 0.00 0.00 0.00 0.01 0.01 0.00 0.00 0.00 0.00 0.00 0.00 0.00 0.00 0.00 0.00 0.00 0.00 0.00 0.00 0.00 0.00 0.00 0.00 0.00 0.01 0.01 0.01 0.00 0.01 0.01 0.00 0.00 0.00 0.01 0.01 0.01 0.01 0.00
0.01 0.01 0.01 0.00 0.00 0.00 0.00 0.00 0.00 0.00 0.00 0.00 0.00 0.00 0.00 0.00 0.00 0.00 0.00 0.00 0.00 0.00 0.00 0.00 0.00 0.00 0.00 0.00 0.00 0.00 0.00 0.00 0.00 0.00 0.00 0.00 0.00 0.01 0.01 0.01 0.01 0.01 0.01 0.00
0.03 0.04 0.02 0.01 0.00 0.00 0.00 0.00 0.00 0.00 0.00 0.00 0.00 0.00 0.00 0.00 0.00 0.00 0.00 0.00 0.00 0.00 0.00 0.00 0.00 0.00 0.00 0.00 0.00 0.00 0.00 0.00 0.00 0.00 0.00 0.00 0.01 0.01 0.01 0.01 0.01 0.01 0.01 0.01
0.08 0.09 0.07 0.04 0.01 0.00 0.00 0.00 0.00 0.00 0.00 0.00 0.00 0.00 0.00 0.00 0.00 0.00 0.00 0.00 0.00 0.00 0.00 0.00 0.00 0.00 0.00 0.00 0.00 0.00 0.00 0.00 0.00 0.00 0.00 0.00 0.01 0.01 0.01 0.01 0.01 0.00 0.00 0.01
0.14 0.14 0.08 0.03 0.01 0.01 0.01 0.01 0.00 0.00 0.00 0.00 0.00 0.00 0.00 0.00 0.00 0.00 0.00 0.00 0.00 0.00 0.00 0.00 0.00 0.00 0.00 0.00 0.00 0.00 0.00 0.00 0.00 0.00 0.00 0.00 0.00 0.01 0.01 0.00 0.00 0.00 0.00 0.01
0.11 0.13 0.13 0.02 0.00 0.01 0.01 0.00 0.00 0.00 0.00 0.00 0.00 0.00 0.00 0.00 0.00 0.00 0.00 0.00 0.00 0.00 0.00 0.00 0.00 0.00 0.00 0.00 0.00 0.00 0.00 0.00 0.00 0.00 0.00 0.00 0.00 0.00 0.00 0.00 0.00 0.00 0.00 0.00
0.10 0.10 0.06 0.02 0.00 0.00 0.00 0.00 0.00 0.00 0.00 0.00 0.00 0.00 0.00 0.00 0.00 0.00 0.00 0.00 0.00 0.00 0.00 0.00 0.00 0.00 0.00 0.00 0.00 0.00 0.00 0.00 0.00 0.00 0.00 0.00 0.00 0.00 0.00 0.00 0.00 0.00 0.00 0.00
0.07 0.06 0.04 0.02 0.01 0.00 0.00 0.00 0.00 0.00 0.00 0.00 0.00 0.00 0.00 0.00 0.00 0.00 0.00 0.00 0.00 0.00 0.00 0.00 0.00 0.00 0.00 0.00 0.00 0.00 0.00 0.00 0.00 0.00 0.00 0.00 0.00 0.00 0.00 0.00 0.00 0.00 0.00 0.00
0.05 0.03 0.03 0.02 0.00 0.00 0.00 0.00 0.00 0.00 0.00 0.00 0.00 0.00 0.00 0.00 0.00 0.00 0.00 0.00 0.00 0.00 0.00 0.00 0.00 0.00 0.00 0.00 0.00 0.00 0.00 0.00 0.00 0.00 0.00 0.00 0.00 0.00 0.00 0.00 0.00 0.00 0.00 0.00
0.05 0.01 0.01 0.00 0.00 0.00 0.00 0.00 0.00 0.00 0.00 0.00 0.00 0.00 0.00 0.00 0.00 0.00 0.00 0.00 0.00 0.00 0.00 0.00 0.00 0.00 0.00 0.00 0.00 0.00 0.00 0.00 0.00 0.00 0.00 0.00 0.00 0.00 0.00 0.00 0.00 0.00 0.00 0.00
0.01 0.00 0.00 0.00 0.00 0.00 0.00 0.00 0.00 0.00 0.00 0.00 0.00 0.00 0.00 0.00 0.00 0.00 0.00 0.00 0.00 0.00 0.00 0.00 0.00 0.00 0.00 0.00 0.00 0.00 0.00 0.00 0.00 0.00 0.00 0.00 0.00 0.00 0.00 0.00 0.00 0.00 0.00 0.00
0.00 0.00 0.00 0.00 0.00 0.00 0.00 0.00 0.00 0.00 0.00 0.00 0.00 0.00 0.00 0.00 0.00 0.00 0.00 0.00 0.00 0.00 0.00 0.00 0.00 0.00 0.00 0.00 0.00 0.00 0.00 0.00 0.00 0.00 0.00 0.00 0.00 0.00 0.00 0.00 0.00 0.00 0.00 0.00
0.00 0.00 0.00 0.00 0.00 0.00 0.00 0.00 0.00 0.00 0.00 0.00 0.00 0.00 0.00 0.00 0.00 0.00 0.00 0.00 0.00 0.00 0.00 0.00 0.00 0.00 0.00 0.00 0.00 0.00 0.00 0.00 0.00 0.00 0.00 0.00 0.00 0.00 0.00 0.00 0.00 0.00 0.00 0.00
0.00 0.00 0.00 0.00 0.00 0.00 0.00 0.00 0.00 0.00 0.00 0.00 0.00 0.00 0.00 0.00 0.00 0.00 0.00 0.00 0.00 0.00 0.00 0.00 0.00 0.00 0.00 0.00 0.00 0.00 0.00 0.00 0.00 0.00 0.00 0.00 0.00 0.00 0.00 0.00 0.00 0.00 0.00 0.00
0.00 0.00 0.00 0.00 0.00 0.00 0.00 0.00 0.00 0.00 0.00 0.00 0.00 0.00 0.00 0.00 0.00 0.00 0.00 0.00 0.00 0.00 0.00 0.00 0.00 0.00 0.00 0.00 0.00 0.00 0.00 0.00 0.00 0.00 0.00 0.00 0.00 0.00 0.00 0.00 0.00 0.00 0.00 0.00
0.00 0.00 0.00 0.00 0.00 0.00 0.00 0.00 0.00 0.00 0.00 0.00 0.00 0.00 0.00 0.00 0.00 0.00 0.00 0.00 0.00 0.00 0.00 0.00 0.00 0.00 0.00 0.00 0.00 0.00 0.00 0.00 0.00 0.00 0.00 0.00 0.00 0.00 0.00 0.00 0.00 0.00 0.00 0.00
0.00 0.00 0.00 0.00 0.00 0.00 0.00 0.00 0.00 0.00 0.00 0.00 0.00 0.00 0.00 0.00 0.00 0.00 0.00 0.00 0.00 0.00 0.00 0.00 0.00 0.00 0.00 0.00 0.00 0.00 0.00 0.00 0.00 0.00 0.00 0.00 0.00 0.00 0.00 0.00 0.00 0.00 0.00 0.00
0.00 0.00 0.00 0.00 0.00 0.00 0.00 0.00 0.00 0.00 0.00 0.00 0.00 0.00 0.00 0.00 0.00 0.00 0.00 0.00 0.00 0.00 0.00 0.00 0.00 0.00 0.00 0.00 0.00 0.00 0.00 0.00 0.00 0.00 0.00 0.00 0.00 0.00 0.00 0.00 0.00 0.00 0.00 0.01
0.00 0.00 0.00 0.00 0.00 0.00 0.00 0.00 0.00 0.00 0.00 0.00 0.00 0.00 0.00 0.00 0.00 0.00 0.00 0.00 0.00 0.00 0.00 0.00 0.00 0.00 0.00 0.00 0.00 0.00 0.00 0.00 0.00 0.00 0.00 0.00 0.00 0.00 0.00 0.00 0.00 0.00 0.00 0.01
0.00 0.00 0.00 0.00 0.00 0.00 0.00 0.01 0.00 0.00 0.00 0.00 0.00 0.00 0.00 0.00 0.00 0.00 0.00 0.00 0.00 0.00 0.00 0.00 0.00 0.00 0.00 0.00 0.00 0.00 0.00 0.00 0.00 0.00 0.00 0.00 0.00 0.00 0.00 0.00 0.00 0.00 0.00 0.01
0.01 0.01 0.01 0.01 0.00 0.00 0.01 0.01 0.00 0.00 0.00 0.00 0.00 0.00 0.00 0.00 0.00 0.00 0.00 0.00 0.00 0.00 0.00 0.00 0.00 0.00 0.00 0.00 0.00 0.00 0.00 0.00 0.00 0.00 0.00 0.00 0.00 0.00 0.00 0.00 0.00 0.00 0.00 0.00
0.02 0.02 0.02 0.01 0.00 0.01 0.01 0.00 0.00 0.00 0.00 0.00 0.00 0.00 0.00 0.00 0.00 0.00 0.00 0.00 0.00 0.00 0.00 0.00 0.00 0.00 0.00 0.00 0.00 0.00 0.00 0.00 0.00 0.00 0.00 0.00 0.00 0.00 0.00 0.00 0.00 0.00 0.00 0.00
0.03 0.02 0.01 0.01 0.01 0.01 0.00 0.00 0.00 0.00 0.00 0.00 0.00 0.00 0.00 0.00 0.00 0.00 0.00 0.00 0.00 0.00 0.00 0.00 0.00 0.00 0.00 0.00 0.00 0.00 0.00 0.00 0.00 0.00 0.00 0.00 0.00 0.00 0.00 0.00 0.00 0.00 0.00 0.00
0.03 0.03 0.02 0.01 0.01 0.00 0.00 0.00 0.00 0.00 0.00 0.00 0.00 0.00 0.00 0.00 0.00 0.00 0.00 0.00 0.00 0.00 0.00 0.00 0.00 0.00 0.00 0.00 0.00 0.00 0.00 0.00 0.00 0.00 0.00 0.00 0.00 0.00 0.00 0.00 0.00 0.00 0.00 0.00
0.03 0.04 0.03 0.01 0.01 0.00 0.00 0.00 0.00 0.00 0.00 0.00 0.00 0.00 0.00 0.00 0.00 0.00 0.00 0.00 0.00 0.00 0.00 0.00 0.00 0.00 0.00 0.00 0.00 0.00 0.00 0.00 0.00 0.00 0.00 0.00 0.00 0.00 0.00 0.00 0.00 0.00 0.00 0.00
MSLP
1006.71 1006.68 1006.70 1006.77 1006.91 1007.11 1007.38 1007.72 1008.12 1008.58 1009.10 1009.69 1010.34 1011.07 1011.86 1012.71 1013.60 1014.50 1015.39 1016.24 1017.02 1017.71 1018.29 1018.78 1019.16 1019.45 1019.66 1019.79 1019.86 1019.87 1019.81 1019.69 1019.51 1019.28 1018.99 1018.68 1018.36 1018.05 1017.79 1017.57 1017.40 1017.29 1017.19 1017.10
1007.03 1006.92 1006.82 1006.77 1006.78 1006.89 1007.09 1007.42 1007.85 1008.41 1009.07 1009.82 1010.66 1011.55 1012.48 1013.43 1014.36 1015.26 1016.12 1016.90 1017.59 1018.20 1018.71 1019.13 1019.47 1019.72 1019.91 1020.01 1020.05 1020.01 1019.91 1019.72 1019.48 1019.18 1018.84 1018.49 1018.15 1017.84 1017.59 1017.39 1017.26 1017.18 1017.12 1017.06
1007.41 1007.21 1007.02 1006.87 1006.78 1006.81 1006.97 1007.29 1007.78 1008.43 1009.22 1010.12 1011.12 1012.16 1013.21 1014.23 1015.20 1016.10 1016.90 1017.60 1018.21 1018.72 1019.15 1019.49 1019.77 1019.97 1020.11 1020.18 1020.17 1020.09 1019.92 1019.69 1019.38 1019.03 1018.65 1018.27 1017.91 1017.60 1017.36 1017.18 1017.08 1017.02 1016.99 1016.95
1007.86 1007.60 1007.33 1007.10 1006.94 1006.92 1007.05 1007.38 1007.91 1008.64 1009.53 1010.56 1011.68 1012.83 1013.97 1015.05 1016.03 1016.91 1017.66 1018.29 1018.81 1019.23 1019.56 1019.83 1020.03 1020.17 1020.25 1020.27 1020.21 1020.07 1019.86 1019.57 1019.22 1018.82 1018.41 1018.01 1017.65 1017.34 1017.11 1016.96 1016.88 1016.84 1016.83 1016.80
1008.38 1008.07 1007.75 1007.47 1007.27 1007.21 1007.34 1007.68 1008.24 1009.02 1009.99 1011.10 1012.29 1013.51 1014.69 1015.79 1016.77 1017.62 1018.32 1018.88 1019.31 1019.65 1019.90 1020.08 1020.21 1020.29 1020.31 1020.27 1020.16 1019.97 1019.70 1019.37 1018.98 1018.57 1018.14 1017.74 1017.38 1017.10 1016.89 1016.76 1016.70 1016.68 1016.68 1016.66
1008.94 1008.60 1008.25 1007.95 1007.73 1007.67 1007.80 1008.15 1008.74 1009.55 1010.55 1011.69 1012.91 1014.14 1015.33 1016.41 1017.37 1018.17 1018.82 1019.31 1019.68 1019.95 1020.13 1020.24 1020.31 1020.32 1020.28 1020.18 1020.01 1019.77 1019.47 1019.11 1018.70 1018.28 1017.86 1017.48 1017.15 1016.90 1016.72 1016.63 1016.60 1016.60 1016.62 1016.61
1009.47 1009.12 1008.77 1008.48 1008.28 1008.24 1008.40 1008.77 1009.37 1010.18 1011.18 1012.31 1013.50 1014.71 1015.86 1016.90 1017.81 1018.56 1019.15 1019.59 1019.90 1020.11 1020.23 1020.29 1020.30 1020.25 1020.16 1020.00 1019.79 1019.51 1019.18 1018.80 1018.40 1017.99 1017.60 1017.26 1016.98 1016.78 1016.66 1016.61 1016.62 1016.65 1016.69 1016.69
1009.88 1009.55 1009.24 1009.00 1008.86 1008.87 1009.07 1009.47 1010.08 1010.89 1011.86 1012.94 1014.08 1015.22 1016.29 1017.27 1018.11 1018.80 1019.33 1019.72 1019.99 1020.15 1020.24 1020.25 1020.21 1020.11 1019.97 1019.77 1019.52 1019.21 1018.86 1018.49 1018.10 1017.72 1017.39 1017.11 1016.90 1016.77 1016.72 1016.73 1016.79 1016.87 1016.93 1016.95
1010.13 1009.85 1009.62 1009.46 1009.41 1009.51 1009.77 1010.22 1010.85 1011.64 1012.56 1013.58 1014.64 1015.69 1016.67 1017.56 1018.32 1018.94 1019.42 1019.77 1020.00 1020.12 1020.17 1020.15 1020.07 1019.94 1019.75 1019.52 1019.23 1018.91 1018.56 1018.20 1017.84 1017.52 1017.25 1017.05 1016.92 1016.88 1016.91 1016.99 1017.11 1017.23 1017.32 1017.36
1010.21 1010.02 1009.89 1009.85 1009.92 1010.13 1010.48 1010.98 1011.63 1012.41 1013.30 1014.24 1015.21 1016.16 1017.04 1017.83 1018.51 1019.06 1019.48 1019.78 1019.98 1020.08 1020.09 1020.04 1019.93 1019.77 1019.55 1019.28 1018.98 1018.65 1018.31 1017.98 1017.67 1017.41 1017.22 1017.10 1017.07 1017.12 1017.22 1017.38 1017.55 1017.71 1017.83 1017.88
1010.17 1010.08 1010.08 1010.18 1010.39 1010.72 1011.17 1011.74 1012.43 1013.20 1014.04 1014.92 1015.80 1016.64 1017.43 1018.12 1018.71 1019.19 1019.56 1019.82 1019.98 1020.05 1020.04 1019.97 1019.83 1019.64 1019.39 1019.11 1018.80 1018.47 1018.15 1017.86 1017.61 1017.42 1017.31 1017.28 1017.34 1017.47 1017.65 1017.87 1018.09 1018.28 1018.41 1018.45
1010.11 1010.14 1010.27 1010.51 1010.86 1011.31 1011.86 1012.50 1013.22 1013.99 1014.80 1015.61 1016.41 1017.16 1017.84 1018.45 1018.96 1019.37 1019.68 1019.90 1020.03 1020.08 1020.05 1019.95 1019.79 1019.57 1019.32 1019.02 1018.71 1018.40 1018.12 1017.87 1017.68 1017.57 1017.54 1017.60 1017.74 1017.94 1018.18 1018.44 1018.68 1018.88 1019.00 1019.03
1010.13 1010.28 1010.53 1010.90 1011.37 1011.93 1012.56 1013.26 1014.00 1014.76 1015.54 1016.29 1017.01 1017.68 1018.28 1018.80 1019.24 1019.59 1019.85 1020.04 1020.13 1020.15 1020.10 1019.99 1019.81 1019.59 1019.32 1019.03 1018.74 1018.46 1018.21 1018.02 1017.90 1017.87 1017.92 1018.05 1018.26 1018.52 1018.80 1019.08 1019.33 1019.51 1019.60 1019.58
1010.35 1010.58 1010.94 1011.40 1011.96 1012.59 1013.28 1014.01 1014.76 1015.51 1016.24 1016.94 1017.59 1018.18 1018.70 1019.15 1019.53 1019.82 1020.04 1020.19 1020.26 1020.26 1020.19 1020.07 1019.89 1019.66 1019.41 1019.14 1018.88 1018.64 1018.45 1018.32 1018.27 1018.31 1018.44 1018.64 1018.90 1019.20 1019.50 1019.78 1020.01 1020.16 1020.20 1020.12
1010.79 1011.10 1011.52 1012.04 1012.64 1013.31 1014.02 1014.75 1015.48 1016.20 1016.88 1017.52 1018.10 1018.62 1019.08 1019.46 1019.78 1020.03 1020.21 1020.33 1020.38 1020.37 1020.30 1020.17 1020.00 1019.79 1019.56 1019.33 1019.11 1018.93 1018.80 1018.74 1018.77 1018.88 1019.08 1019.34 1019.64 1019.96 1020.27 1020.54 1020.73 1020.83 1020.81 1020.66
1011.45 1011.79 1012.24 1012.78 1013.40 1014.06 1014.75 1015.45 1016.14 1016.80 1017.43 1018.00 1018.52 1018.98 1019.37 1019.70 1019.97 1020.19 1020.34 1020.44 1020.48 1020.46 1020.40 1020.29 1020.14 1019.96 1019.77 1019.58 1019.42 1019.30 1019.25 1019.27 1019.36 1019.54 1019.80 1020.10 1020.44 1020.78 1021.09 1021.33 1021.49 1021.53 1021.44 1021.22
1012.25 1012.61 1013.07 1013.59 1014.18 1014.81 1015.45 1016.10 1016.73 1017.32 1017.88 1018.39 1018.84 1019.24 1019.58 1019.86 1020.10 1020.28 1020.42 1020.51 1020.55 1020.55 1020.50 1020.42 1020.30 1020.17 1020.03 1019.90 1019.80 1019.75 1019.76 1019.85 1020.01 1020.25 1020.55 1020.89 1021.25 1021.60 1021.90 1022.12 1022.24 1022.24 1022.10 1021.82
1013.10 1013.47 1013.90 1014.40 1014.94 1015.50 1016.08 1016.66 1017.22 1017.75 1018.23 1018.68 1019.07 1019.41 1019.71 1019.96 1020.17 1020.34 1020.47 1020.56 1020.62 1020.64 1020.62 1020.57 1020.51 1020.42 1020.34 1020.27 1020.23 1020.24 1020.31 1020.45 1020.66 1020.93 1021.27 1021.63 1022.00 1022.35 1022.64 1022.85 1022.95 1022.92 1022.75 1022.44
1013.91 1014.27 1014.68 1015.13 1015.61 1016.12 1016.63 1017.13 1017.62 1018.08 1018.50 1018.88 1019.23 1019.53 1019.79 1020.02 1020.22 1020.39 1020.52 1020.63 1020.71 1020.77 1020.79 1020.79 1020.77 1020.74 1020.72 1020.70 1020.71 1020.76 1020.87 1021.04 1021.27 1021.56 1021.90 1022.27 1022.64 1022.98 1023.27 1023.47 1023.56 1023.52 1023.35 1023.03
1014.61 1014.96 1015.34 1015.76 1016.19 1016.64 1017.08 1017.52 1017.94 1018.34 1018.71 1019.04 1019.35 1019.62 1019.87 1020.09 1020.28 1020.46 1020.62 1020.76 1020.87 1020.97 1021.04 1021.09 1021.12 1021.14 1021.16 1021.18 1021.22 1021.30 1021.42 1021.59 1021.82 1022.10 1022.42 1022.77 1023.12 1023.45 1023.73 1023.92 1024.02 1024.00 1023.85 1023.56
1015.20 1015.54 1015.91 1016.29 1016.68 1017.07 1017.46 1017.84 1018.21 1018.55 1018.88 1019.18 1019.46 1019.71 1019.95 1020.18 1020.39 1020.59 1020.77 1020.95 1021.11 1021.25 1021.37 1021.47 1021.55 1021.61 1021.66 1021.71 1021.77 1021.84 1021.95 1022.10 1022.30 1022.54 1022.82 1023.13 1023.45 1023.76 1024.02 1024.22 1024.34 1024.35 1024.24 1024.01
1015.70 1016.05 1016.40 1016.75 1017.10 1017.45 1017.79 1018.12 1018.44 1018.75 1019.03 1019.31 1019.57 1019.82 1020.06 1020.29 1020.53 1020.76 1020.98 1021.20 1021.41 1021.60 1021.77 1021.92 1022.04 1022.14 1022.21 1022.27 1022.33 1022.39 1022.47 1022.59 1022.73 1022.92 1023.15 1023.41 1023.68 1023.96 1024.21 1024.41 1024.54 1024.59 1024.54 1024.38
1016.17 1016.52 1016.85 1017.18 1017.50 1017.80 1018.10 1018.39 1018.66 1018.92 1019.18 1019.43 1019.68 1019.92 1020.17 1020.42 1020.68 1020.94 1021.21 1021.47 1021.73 1021.97 1022.19 1022.38 1022.54 1022.67 1022.77 1022.84 1022.89 1022.94 1022.99 1023.06 1023.16 1023.29 1023.46 1023.66 1023.89 1024.13 1024.36 1024.56 1024.71 1024.80 1024.80 1024.71
1016.65 1017.00 1017.32 1017.62 1017.90 1018.16 1018.41 1018.64 1018.87 1019.09 1019.31 1019.53 1019.76 1020.00 1020.26 1020.52 1020.80 1021.10 1021.40 1021.71 1022.01 1022.30 1022.57 1022.81 1023.01 1023.17 1023.29 1023.38 1023.43 1023.47 1023.50 1023.55 1023.61 1023.69 1023.82 1023.97 1024.16 1024.36 1024.58 1024.77 1024.94 1025.06 1025.11 1025.09
1017.16 1017.50 1017.80 1018.07 1018.31 1018.52 1018.72 1018.89 1019.06 1019.24 1019.41 1019.60 1019.81 1020.04 1020.29 1020.57 1020.87 1021.20 1021.53 1021.88 1022.22 1022.56 1022.87 1023.15 1023.39 1023.59 1023.74 1023.86 1023.93 1023.99 1024.03 1024.06 1024.11 1024.18 1024.28 1024.41 1024.57 1024.76 1024.95 1025.14 1025.32 1025.45 1025.54 1025.57
1017.68 1018.01 1018.30 1018.53 1018.72 1018.88 1019.01 1019.12 1019.24 1019.35 1019.48 1019.63 1019.81 1020.02 1020.26 1020.55 1020.86 1021.20 1021.56 1021.94 1022.32 1022.69 1023.04 1023.36 1023.65 1023.90 1024.10 1024.26 1024.38 1024.47 1024.55 1024.62 1024.69 1024.78 1024.88 1025.02 1025.17 1025.35 1025.54 1025.72 1025.89 1026.04 1026.14 1026.19
1018.15 1018.48 1018.75 1018.95 1019.09 1019.20 1019.27 1019.32 1019.37 1019.43 1019.50 1019.61 1019.76 1019.95 1020.18 1020.45 1020.77 1021.12 1021.50 1021.90 1022.31 1022.71 1023.10 1023.46 1023.80 1024.09 1024.35 1024.58 1024.76 1024.92 1025.07 1025.20 1025.33 1025.46 1025.61 1025.78 1025.95 1026.14 1026.33 1026.51 1026.68 1026.81 1026.91 1026.97
Thickness
5693 5709 5720 5720 5708 5705 5704 5709 5708 5706 5682 5681 5675 5666 5660 5652 5643 5633 5625 5619 5611 5600 5589 5580 5571 5560 5551 5543 5535 5527 5520 5514 5510 5507 5505 5502 5497 5492 5486 5480 5475 5469 5463 5456
5675 5694 5704 5705 5700 5691 5691 5690 5692 5687 5665 5677 5668 5658 5649 5640 5633 5624 5617 5610 5599 5588 5578 5568 5556 5546 5536 5528 5521 5514 5508 5506 5505 5503 5500 5497 5493 5488 5481 5474 5468 5461 5454 5447
5650 5673 5681 5678 5690 5691 5694 5689 5680 5658 5651 5659 5651 5644 5636 5630 5623 5615 5606 5597 5586 5575 5565 5554 5543 5532 5523 5517 5511 5505 5502 5502 5502 5500 5496 5492 5487 5482 5475 5468 5462 5455 5447 5440
5637 5646 5637 5673 5693 5694 5686 5670 5671 5661 5650 5647 5639 5633 5627 5621 5612 5602 5593 5582 5571 5561 5552 5542 5531 5523 5515 5509 5506 5504 5503 5501 5499 5496 5491 5486 5482 5476 5469 5463 5455 5448 5441 5434
5615 5624 5644 5660 5672 5679 5664 5647 5658 5650 5641 5633 5628 5617 5607 5603 5597 5587 5576 5566 5556 5548 5541 5531 5523 5516 5510 5507 5506 5504 5501 5498 5495 5490 5486 5482 5477 5470 5464 5456 5449 5443 5437 5429
5602 5606 5621 5644 5656 5666 5651 5628 5645 5643 5633 5624 5616 5601 5590 5590 5583 5573 5562 5552 5544 5538 5532 5523 5516 5510 5507 5506 5505 5502 5499 5496 5492 5488 5483 5479 5473 5466 5458 5451 5444 5438 5432 5424
5596 5596 5602 5627 5638 5641 5614 5612 5630 5628 5620 5612 5602 5595 5583 5577 5568 5558 5548 5540 5534 5529 5522 5515 5510 5506 5504 5504 5503 5500 5497 5494 5491 5488 5482 5476 5469 5461 5454 5447 5439 5432 5424 5416
5601 5587 5574 5607 5616 5615 5614 5620 5619 5613 5603 5592 5585 5577 5571 5563 5555 5546 5538 5530 5525 5521 5516 5511 5508 5505 5503 5503 5502 5500 5497 5494 5491 5487 5481 5474 5465 5458 5451 5442 5433 5425 5416 5408
5589 5586 5591 5599 5605 5612 5614 5609 5605 5598 5590 5582 5573 5567 5561 5552 5544 5536 5529 5523 5519 5516 5512 5509 5507 5505 5504 5503 5502 5499 5497 5494 5490 5486 5479 5471 5463 5456 5447 5437 5427 5417 5407 5398
5569 5575 5585 5590 5592 5591 5592 5592 5591 5586 5580 5574 5565 5558 5550 5542 5534 5526 5520 5516 5514 5511 5509 5508 5508 5507 5506 5504 5501 5498 5496 5491 5488 5483 5474 5465 5460 5452 5441 5428 5415 5404 5393 5386
5565 5569 5576 5576 5577 5575 5576 5577 5576 5574 5571 5564 5556 5547 5539 5531 5524 5517 5513 5511 5508 5506 5506 5507 5509 5509 5507 5503 5500 5496 5493 5486 5482 5478 5467 5460 5452 5440 5427 5408 5397 5387 5378 5374
5556 5567 5569 5566 5567 5567 5564 5564 5563 5562 5558 5553 5544 5535 5529 5521 5514 5510 5507 5504 5503 5503 5505 5508 5510 5507 5505 5502 5498 5493 5489 5481 5476 5471 5461 5455 5447 5432 5414 5401 5389 5378 5370 5364
5556 5564 5564 5563 5561 5559 5556 5554 5554 5551 5544 5536 5530 5525 5519 5512 5506 5504 5502 5500 5500 5503 5506 5508 5509 5506 5504 5501 5496 5488 5482 5475 5471 5465 5457 5450 5442 5432 5413 5396 5384 5374 5366 5361
5558 5559 5554 5553 5552 5551 5549 5547 5544 5538 5532 5525 5520 5516 5510 5504 5500 5497 5496 5497 5500 5504 5507 5508 5507 5503 5501 5499 5493 5484 5476 5470 5465 5459 5452 5444 5435 5423 5409 5397 5385 5373 5364 5358
5550 5550 5548 5546 5544 5541 5539 5535 5530 5526 5521 5517 5512 5507 5502 5497 5493 5492 5494 5497 5501 5505 5507 5506 5503 5501 5499 5495 5491 5481 5472 5466 5460 5454 5446 5437 5425 5413 5400 5389 5378 5368 5360 5356
5538 5538 5537 5534 5531 5529 5528 5525 5522 5518 5514 5510 5505 5500 5495 5491 5489 5491 5494 5499 5502 5503 5503 5502 5501 5499 5496 5492 5488 5480 5470 5460 5456 5449 5441 5431 5417 5405 5393 5382 5371 5362 5356 5351
5526 5524 5524 5521 5520 5520 5520 5519 5516 5513 5509 5505 5500 5495 5491 5488 5489 5492 5496 5499 5501 5501 5500 5498 5497 5495 5491 5487 5484 5479 5470 5460 5453 5446 5435 5424 5410 5398 5386 5375 5366 5359 5354 5350
5517 5517 5515 5513 5512 5512 5513 5514 5512 5509 5505 5501 5496 5491 5489 5489 5491 5495 5499 5500 5500 5499 5497 5494 5492 5491 5487 5483 5479 5475 5468 5459 5451 5443 5431 5418 5405 5392 5381 5372 5364 5358 5353 5350
5504 5504 5505 5505 5506 5507 5508 5509 5508 5505 5501 5497 5492 5489 5489 5491 5494 5498 5501 5503 5501 5499 5495 5492 5490 5489 5485 5482 5478 5472 5465 5458 5450 5440 5429 5414 5402 5389 5379 5371 5364 5358 5353 5351
5494 5496 5497 5499 5501 5503 5504 5504 5502 5499 5496 5493 5490 5488 5489 5492 5496 5501 5504 5503 5501 5499 5496 5494 5492 5488 5484 5480 5477 5471 5463 5455 5447 5438 5428 5416 5403 5390 5379 5371 5365 5359 5355 5352
5488 5490 5492 5495 5497 5499 5499 5498 5495 5492 5490 5488 5487 5487 5489 5493 5499 5502 5503 5501 5499 5498 5495 5492 5490 5486 5480 5475 5474 5468 5460 5453 5445 5436 5427 5418 5406 5394 5384 5374 5367 5362 5358 5354
5484 5486 5488 5491 5492 5493 5494 5492 5489 5487 5484 5483 5484 5486 5490 5494 5500 5504 5506 5502 5499 5494 5496 5493 5488 5481 5475 5474 5472 5465 5458 5452 5444 5435 5426 5418 5409 5400 5389 5380 5372 5366 5361 5357
5479 5481 5483 5484 5485 5485 5485 5484 5483 5481 5479 5480 5482 5486 5491 5497 5503 5504 5503 5503 5501 5495 5494 5489 5482 5479 5473 5477 5471 5463 5456 5450 5443 5435 5426 5418 5410 5402 5394 5385 5377 5371 5366 5362
5474 5475 5476 5476 5475 5475 5475 5475 5475 5475 5475 5478 5482 5487 5493 5499 5504 5505 5500 5497 5496 5494 5491 5486 5483 5479 5478 5477 5469 5462 5455 5448 5441 5434 5426 5418 5410 5403 5397 5390 5384 5378 5372 5367
5468 5468 5468 5467 5467 5467 5467 5467 5468 5470 5473 5477 5483 5489 5497 5504 5505 5503 5500 5496 5492 5492 5490 5487 5484 5481 5480 5473 5466 5458 5451 5444 5439 5433 5425 5418 5410 5403 5396 5390 5384 5379 5374 5371
5460 5461 5461 5461 5462 5461 5462 5463 5466 5468 5472 5477 5484 5492 5500 5505 5503 5499 5497 5497 5495 5493 5494 5491 5488 5484 5479 5473 5466 5460 5453 5446 5439 5432 5425 5417 5409 5401 5394 5388 5381 5376 5370 5366
5453 5454 5455 5456 5456 5457 5460 5462 5465 5467 5472 5478 5487 5495 5502 5503 5502 5502 5501 5498 5497 5498 5499 5495 5490 5485 5479 5472 5466 5459 5454 5447 5440 5433 5425 5417 5408 5400 5391 5383 5376 5371 5367 5362